Weather History for KMVE - November, 2013

Change the Weather History Date:

Monday, November 4, 2013

  Actual Average Record
Temperature  
Mean Temperature 40 °F -  
Max Temperature 48 °F 45 °F 76 °F (1975)
Min Temperature 33 °F 27 °F -4 °F (1991)
Degree Days  
Heating Degree Days 24    
Moisture  
Dew Point 34 °F    
Average Humidity 73    
Maximum Humidity 100    
Minimum Humidity 50    
Precipitation  
Precipitation 0.01 in - - ()
Sea Level Pressure  
Sea Level Pressure 29.89 in    
Wind  
Wind Speed 10 mph (West)    
Max Wind Speed 15 mph    
Max Gust Speed 23 mph    
Visibility 10 miles    
Events Rain    
Averages and records for this station are not official NWS values.
T = Trace of Precipitation, MM = Missing Value Source: NWS Daily Summary

Daily Weather History Graph

Daily Weather History Graph

Search for Another Location

Airport or City:

Trip Planner

Search our weather history database for the weather conditions in past years. The results will help you decide how hot, cold, wet, or windy it might be!

Date:

Astronomy

Nov. 04, 2013 Rise Set
Actual Time 7:05 AM CST 5:06 PM CST
Civil Twilight 6:34 AM CST 5:37 PM CST
Nautical Twilight 5:59 AM CST 6:12 PM CST
Astronomical Twilight 5:25 AM CST 6:46 PM CST
Moon 8:20 AM CST (11/4) 6:08 PM CST (11/4)
Length of Visible Light 11h 02m
Length of Day
10h 00m
New Moon, 2% of the Moon is Illuminated
Nov 4
New Moon
Nov 9
First Quarter
Nov 17
Full
Nov 25
Last Quarter
Dec 2
New

Hourly Weather History & Observations

Time (CST) Temp. Windchill Dew Point Humidity Pressure Visibility Wind Dir Wind Speed Gust Speed Precip Events Conditions
12:13 AM 48.2 °F - 37.4 °F 66% 29.73 in 10.0 mi SSW 12.7 mph 21.9 mph N/A   Mostly Cloudy
12:34 AM 48.2 °F - 37.4 °F 66% 29.73 in 10.0 mi SSW 13.8 mph 21.9 mph N/A   Clear
12:54 AM 48.2 °F - 37.4 °F 66% 29.73 in 10.0 mi South 12.7 mph 19.6 mph N/A   Clear
1:13 AM 48.2 °F - 37.4 °F 66% 29.73 in 10.0 mi SSW 11.5 mph - N/A   Clear
1:34 AM 46.4 °F 41.9 °F 37.4 °F 71% 29.73 in 10.0 mi South 9.2 mph 17.3 mph N/A   Clear
1:54 AM 46.4 °F 41.1 °F 37.4 °F 71% 29.73 in 10.0 mi SSW 11.5 mph - N/A   Clear
2:14 AM 46.4 °F 41.5 °F 37.4 °F 71% 29.72 in 10.0 mi South 10.4 mph 17.3 mph N/A   Clear
2:34 AM 46.4 °F 41.1 °F 37.4 °F 71% 29.72 in 10.0 mi South 11.5 mph 18.4 mph N/A   Clear
2:54 AM 46.4 °F 41.5 °F 37.4 °F 71% 29.73 in 10.0 mi South 10.4 mph 16.1 mph N/A   Clear
3:14 AM 44.6 °F 39.7 °F 37.4 °F 76% 29.73 in 10.0 mi SSW 9.2 mph 16.1 mph N/A   Clear
3:34 AM 44.6 °F 39.7 °F 37.4 °F 76% 29.72 in 10.0 mi South 9.2 mph 16.1 mph N/A   Clear
3:54 AM 44.6 °F 39.7 °F 37.4 °F 76% 29.72 in 10.0 mi SSW 9.2 mph - N/A   Clear
4:14 AM 44.6 °F 39.2 °F 37.4 °F 76% 29.73 in 10.0 mi SSW 10.4 mph - N/A   Clear
4:34 AM 44.6 °F 39.2 °F 37.4 °F 76% 29.73 in 10.0 mi SSW 10.4 mph - N/A   Clear
4:54 AM 42.8 °F 37.5 °F 37.4 °F 81% 29.73 in 10.0 mi SSW 9.2 mph - N/A   Clear
5:14 AM 42.8 °F 38.6 °F 37.4 °F 81% 29.73 in 10.0 mi SSW 6.9 mph - N/A   Clear
5:34 AM 42.8 °F 38.6 °F 37.4 °F 81% 29.73 in 10.0 mi SSW 6.9 mph - N/A   Clear
5:54 AM 42.8 °F 39.3 °F 37.4 °F 81% 29.74 in 10.0 mi SSW 5.8 mph - N/A   Clear
6:14 AM 41.0 °F 38.0 °F 37.4 °F 87% 29.74 in 10.0 mi SSW 4.6 mph - N/A   Clear
6:34 AM 39.2 °F 35.0 °F 37.4 °F 93% 29.74 in 10.0 mi SSW 5.8 mph - N/A   Clear
6:54 AM 39.2 °F 35.0 °F 35.6 °F 87% 29.74 in 10.0 mi SSW 5.8 mph - N/A   Clear
7:14 AM 39.2 °F 35.0 °F 35.6 °F 87% 29.74 in 10.0 mi SW 5.8 mph - N/A   Clear
7:34 AM 39.2 °F 34.2 °F 35.6 °F 87% 29.76 in 10.0 mi SW 6.9 mph - N/A   Clear
7:54 AM 39.2 °F 35.0 °F 35.6 °F 87% 29.77 in 10.0 mi WSW 5.8 mph - N/A   Clear
8:14 AM 39.2 °F 35.9 °F 35.6 °F 87% 29.78 in 10.0 mi WSW 4.6 mph - N/A   Clear
8:34 AM 41.0 °F 37.1 °F 37.4 °F 87% 29.78 in 10.0 mi NW 5.8 mph - N/A   Clear
8:54 AM 42.8 °F 37.5 °F 37.4 °F 81% 29.79 in 10.0 mi North 9.2 mph - N/A   Clear
9:14 AM 42.8 °F 35.4 °F 35.6 °F 76% 29.82 in 10.0 mi NNW 15.0 mph 20.7 mph N/A   Scattered Clouds
9:34 AM 42.8 °F 35.4 °F 35.6 °F 76% 29.84 in 10.0 mi NNW 15.0 mph 23.0 mph N/A   Mostly Cloudy
9:54 AM 42.8 °F 36.2 °F 35.6 °F 76% 29.86 in 10.0 mi NNW 12.7 mph 20.7 mph N/A Rain Rain
10:14 AM 41.0 °F 33.5 °F 37.4 °F 87% 29.87 in 5.0 mi NNW 13.8 mph 18.4 mph N/A Rain Light Rain
10:34 AM 39.2 °F 32.0 °F 39.2 °F 100% 29.87 in 10.0 mi NNW 11.5 mph 18.4 mph 0.01 in Rain Light Rain
10:54 AM 41.0 °F 34.7 °F 39.2 °F 93% 29.87 in 10.0 mi North 10.4 mph - 0.01 in   Drizzle
11:14 AM 42.8 °F 36.2 °F 41.0 °F 93% 29.88 in 10.0 mi North 12.7 mph - N/A   Light Drizzle
11:34 AM 42.8 °F 36.2 °F 39.2 °F 87% 29.88 in 10.0 mi NNW 12.7 mph 16.1 mph N/A   Mostly Cloudy
11:54 AM 42.8 °F 35.4 °F 37.4 °F 81% 29.90 in 10.0 mi NNW 15.0 mph 21.9 mph N/A   Overcast
12:14 PM 42.8 °F 36.2 °F 37.4 °F 81% 29.90 in 10.0 mi NNW 12.7 mph - N/A   Overcast
12:34 PM 44.6 °F 38.8 °F 35.6 °F 71% 29.90 in 10.0 mi NNW 11.5 mph - N/A   Mostly Cloudy
12:54 PM 44.6 °F 40.2 °F 35.6 °F 71% 29.90 in 10.0 mi NW 8.1 mph 17.3 mph N/A   Mostly Cloudy
1:14 PM 46.4 °F 41.1 °F 33.8 °F 62% 29.90 in 10.0 mi NW 11.5 mph 18.4 mph N/A   Scattered Clouds
1:34 PM 46.4 °F 41.9 °F 33.8 °F 62% 29.91 in 10.0 mi NNW 9.2 mph 19.6 mph N/A   Clear
1:54 PM 46.4 °F 40.7 °F 33.8 °F 62% 29.91 in 10.0 mi NW 12.7 mph 16.1 mph N/A   Scattered Clouds
2:14 PM 46.4 °F 41.5 °F 32.0 °F 57% 29.92 in 10.0 mi NW 10.4 mph 19.6 mph N/A   Scattered Clouds
2:34 PM 46.4 °F 40.7 °F 32.0 °F 57% 29.92 in 10.0 mi NW 12.7 mph 18.4 mph N/A   Clear
2:54 PM 48.2 °F - 32.0 °F 54% 29.93 in 10.0 mi NW 9.2 mph 17.3 mph N/A   Clear
3:14 PM 48.2 °F - 30.2 °F 50% 29.94 in 10.0 mi NW 10.4 mph 16.1 mph N/A   Clear
3:34 PM 48.2 °F - 30.2 °F 50% 29.95 in 10.0 mi NNW 10.4 mph - N/A   Clear
3:54 PM 46.4 °F 40.4 °F 28.4 °F 50% 29.96 in 10.0 mi NW 13.8 mph 17.3 mph N/A   Clear
4:14 PM 46.4 °F 41.1 °F 28.4 °F 50% 29.97 in 10.0 mi NW 11.5 mph 18.4 mph N/A   Clear
4:34 PM 46.4 °F 42.9 °F 30.2 °F 53% 29.99 in 10.0 mi NW 6.9 mph - N/A   Clear
4:54 PM 44.6 °F 41.4 °F 30.2 °F 57% 29.99 in 10.0 mi NW 5.8 mph - N/A   Clear
5:14 PM 42.8 °F 40.1 °F 30.2 °F 61% 29.99 in 10.0 mi NNW 4.6 mph - N/A   Clear
5:34 PM 42.8 °F - 30.2 °F 61% 30.00 in 10.0 mi Calm Calm - N/A   Clear
5:54 PM 41.0 °F - 30.2 °F 65% 30.01 in 10.0 mi Calm Calm - N/A   Clear
6:14 PM 39.2 °F - 30.2 °F 70% 30.01 in 10.0 mi Calm Calm - N/A   Clear
6:34 PM 39.2 °F 37.0 °F 30.2 °F 70% 30.03 in 10.0 mi West 3.5 mph - N/A   Clear
6:54 PM 39.2 °F - 30.2 °F 70% 30.04 in 10.0 mi Calm Calm - N/A   Clear
7:14 PM 39.2 °F 35.9 °F 28.4 °F 65% 30.05 in 10.0 mi West 4.6 mph - N/A   Clear
7:34 PM 39.2 °F 35.0 °F 28.4 °F 65% 30.06 in 10.0 mi West 5.8 mph - N/A   Clear
7:54 PM 37.4 °F 32.8 °F 28.4 °F 70% 30.07 in 10.0 mi West 5.8 mph - N/A   Clear
8:14 PM 37.4 °F 32.1 °F 28.4 °F 70% 30.08 in 10.0 mi West 6.9 mph - N/A   Clear
8:34 PM 35.6 °F 29.9 °F 28.4 °F 75% 30.09 in 10.0 mi WSW 6.9 mph - N/A   Clear
8:54 PM 35.6 °F 29.9 °F 28.4 °F 75% 30.10 in 10.0 mi WSW 6.9 mph - N/A   Clear
9:14 PM 35.6 °F 29.9 °F 28.4 °F 75% 30.11 in 10.0 mi West 6.9 mph - N/A   Clear
9:34 PM 35.6 °F 30.7 °F 28.4 °F 75% 30.11 in 10.0 mi West 5.8 mph - N/A   Clear
9:54 PM 35.6 °F 30.7 °F 28.4 °F 75% 30.12 in 10.0 mi West 5.8 mph - N/A   Clear
10:14 PM 33.8 °F - 28.4 °F 81% 30.13 in 10.0 mi Calm Calm - N/A   Clear
10:34 PM 35.6 °F 30.7 °F 28.4 °F 75% 30.13 in 10.0 mi WNW 5.8 mph - N/A   Clear
10:54 PM 33.8 °F 29.6 °F 28.4 °F 81% 30.13 in 10.0 mi West 4.6 mph - N/A   Clear
11:14 PM 33.8 °F 29.6 °F 28.4 °F 81% 30.14 in 10.0 mi West 4.6 mph - N/A   Clear
11:34 PM 33.8 °F 28.6 °F 28.4 °F 81% 30.15 in 10.0 mi West 5.8 mph - N/A   Clear
11:54 PM 33.8 °F 28.6 °F 28.4 °F 81% 30.15 in 10.0 mi West 5.8 mph - N/A   Clear